TITAN 3C TRANSTAGE DEB, 39296

Orbit data source: Space-Track

TITAN 3C TRANSTAGE DEB, 39296 is space debris in GEO originally from a launch on Thu, 26 Sep 1968 UTC launched from the Air Force Eastern Test Range (AFETR). Debris objects in space refer to the collection of defunct objects orbiting the Earth. Examples of debris include non-operational satellites, rocket bodies, and fragments generated from explosions, collisions, or faulty payload assembly.

Not visible in the next 10 days
Identifier
39296, 1968-081AG
Orbit
GEO
Country
Flag of USUS
Related business
Manufacturer
Unknown
Mission
Spacecraft
Bus & Motor
Unknown
Mass
Unknown
Launch date (UTC)
1968-09-26 (57 years ago)
Launch vehicle
Unknown
Launch site
Air Force Eastern Test Range (AFETR)
Object type
Payload
Rocket body
Debris
Shape & HBR
Unknown shape, 1.1 m
Radar Cross Section
RCS unknown

Expand to show TLE details & history
Last TLE update: 1 day ago

TLE from 1 day ago
0 TITAN 3C TRANSTAGE DEB
1 39296U 68081AG  25306.35668769 -.00000045  00000-0  00000+0 0  9997
2 39296   1.3301  15.0573 0164399 312.6749   7.1307  1.00567211 49402
Epoch: 2025-11-02T08:33Z
TLE epoch observation values (Epoch: 2025-11-02T08:33:37.816Z)
Latitude
-0.83388°
Longitude
164.78016°
Altitude
35,019.14 km
Speed
3.128 km/s
True Right ascension
22h 20m 14s
True Declination
0° 49' 59"
Sunlit
Object was in daylight at epoch
Visualization orbit readout
Latitude
Unknown
Longitude
Unknown
Altitude
Unknown
Speed
Unknown
Apparent Right ascension
Unknown
Apparent Declination
Unknown
Sunlit
N/A
Visualization observer readout
Local Sidereal Time
15:18:07
Azimuth
Unknown
Elevation
Unknown
Doppler factor
Unknown
Orbital elements
Apogee altitude
36,396.894 km
Perigee altitude
35,013.208 km
Semi-major axis
42,083.188 km
Eccentricity
0.01644
Inclination
1.3301°
RAAN
15.0573°
Arg. of periapsis
312.6749°
True anomaly
7.36941°
Mean anomaly
7.1307°
Eccentric anomaly
7.24956°
Mean motion
0.25141 °/min
Orbital period
1,431.93 mins
BSTAR
0
Loading maneuver chart data...
Computing Atmospheric mass density...

Documentation

Showing up to 5 results
|